PST,Max TemperatureF,Mean TemperatureF,Min TemperatureF,Max Dew PointF,MeanDew PointF,Min DewpointF,Max Humidity, Mean Humidity, Min Humidity, Max Sea Level PressureIn, Mean Sea Level PressureIn, Min Sea Level PressureIn, Max VisibilityMiles, Mean VisibilityMiles, Min VisibilityMiles, Max Wind SpeedMPH, Mean Wind SpeedMPH, Max Gust SpeedMPH,PrecipitationIn, CloudCover, Events, WindDirDegrees
2012-12-1,68,65,61,61,59,57,97,89,81,30.20,30.13,30.07,10,6,2,10,4,14,0.14,8,Rain,128
2012-12-2,68,64,60,61,60,57,93,86,78,30.16,30.11,30.07,10,6,1,12,4,16,0.29,8,Rain,218
2012-12-3,68,61,54,61,58,51,97,82,67,30.21,30.15,30.08,10,7,0,12,3,21,0.02,6,Fog-Rain,244
2012-12-4,66,58,50,57,54,48,96,84,72,30.29,30.22,30.16,10,7,0,10,2,12,0.00,4,Fog,52
2012-12-5,68,60,51,58,54,49,100,82,63,30.18,30.09,30.02,10,6,0,9,3,,0.00,3,Fog,97
2012-12-6,67,60,52,57,54,49,93,83,73,30.03,29.97,29.91,9,6,1,10,3,14,0.00,5,,64
2012-12-7,66,56,46,56,51,43,93,83,72,30.00,29.96,29.94,10,8,5,10,3,14,0.00,0,,210
2012-12-8,64,53,42,54,46,37,96,82,67,30.01,29.96,29.92,10,5,0,10,2,13,0.00,1,Fog,86
2012-12-9,65,57,48,53,48,45,93,77,60,30.15,30.04,29.96,5,2,0,10,3,12,0.00,4,Fog,56
2012-12-10,76,60,43,51,44,33,96,60,23,30.17,30.12,30.08,10,6,1,13,3,15,0.00,0,,289
2012-12-11,69,56,43,56,49,38,86,62,37,30.08,30.01,29.94,10,8,4,12,3,,0.00,3,,239
2012-12-12,62,58,54,52,51,48,89,75,60,29.98,29.91,29.84,10,7,3,13,4,16,0.09,8,Rain,94
2012-12-13,61,53,45,52,47,38,93,71,49,29.85,29.81,29.76,10,10,6,10,4,17,T,4,,86
2012-12-14,58,48,38,43,37,34,85,63,40,30.04,29.91,29.79,10,10,9,13,4,15,0.04,3,Rain,16
2012-12-15,60,50,40,45,40,34,89,65,40,30.12,30.06,30.01,10,10,10,15,3,18,0.00,3,,3
2012-12-16,57,54,51,52,48,42,89,78,66,30.19,30.15,30.09,10,8,3,15,8,18,T,8,Rain,56
2012-12-17,65,60,54,54,52,49,93,77,60,30.19,30.11,30.02,10,8,3,16,3,,0.01,8,Rain,83
2012-12-18,64,53,42,54,47,26,93,60,27,30.09,29.94,29.84,10,8,2,26,8,35,0.16,5,Rain,325
2012-12-19,62,49,36,29,17,7,70,41,12,30.30,30.23,30.09,10,10,10,25,12,32,0.00,0,,68
2012-12-20,67,57,46,18,14,10,29,21,12,30.26,30.18,30.12,10,10,10,23,13,28,0.00,0,,73
2012-12-21,65,52,39,42,30,18,76,49,22,30.16,30.11,30.08,10,10,10,13,4,17,0.00,0,,18
2012-12-22,60,49,37,52,44,31,93,63,32,30.21,30.15,30.10,10,7,2,10,4,12,0.01,6,Rain,29
2012-12-23,62,55,47,54,50,45,93,81,69,30.25,30.17,30.10,10,6,2,12,3,14,0.13,6,Rain,60
2012-12-24,64,57,50,55,52,40,93,80,67,30.12,30.07,30.02,10,6,2,13,4,,0.50,6,Rain,46
2012-12-25,62,53,43,44,39,36,76,58,39,30.14,30.07,29.98,10,10,10,9,3,13,0.00,1,,45
2012-12-26,62,53,43,48,44,39,93,72,51,30.03,29.98,29.93,10,8,2,30,10,36,0.10,4,Rain,303
2012-12-27,62,50,38,42,36,31,85,64,43,30.14,30.05,30.00,10,10,10,18,5,21,0.00,0,,22
2012-12-28,63,51,38,47,36,29,80,54,27,30.19,30.14,30.10,10,10,10,12,6,,0.00,0,,42
2012-12-29,57,48,39,44,38,32,79,67,54,30.10,30.06,30.01,10,9,5,15,6,26,0.10,5,Rain,54
2012-12-30,59,47,35,39,35,31,85,64,43,30.12,30.03,29.96,10,10,10,10,3,13,0.00,0,,293
2012-12-31,62,49,35,36,33,29,82,56,30,30.27,30.21,30.13,10,10,10,21,6,26,0.00,0,,57